Location: Bidart
(43.4376°N, 1.5913°W)
Time: 15:14:18
(UTC+00:00)

COSMOS 2406 - Pass Details

Date: 19 May 2025
Orbit: 845 x 859 km, 71.0° (Epoch: 17 June)

Event Time Altitude Azimuth Distance (km) Brightness Sun altitude
Exits shadow 23:41:06 27° 254° (WSW) 1,587 4.5 -26.4°
Maximum altitude 23:43:33 40° 303° (WNW) 1,241 4.3 -26.4°
Drops below altitude 10° 23:48:54 10° 12° (NNE) 2,488 6.6 -26.5°
Sets 23:51:32 0° 20° (NNE) 3,430 7.4 -26.5°
